Location: Arbon
(43.0005°N, 0.7472°E)
Time: 19:49:03
(UTC+00:00)

Courier 1B Rocket - Pass Details

Date: 04 December 2020
Orbit: 920 x 1202 km, 28.2° (Epoch: 22 January)

Event Time Altitude Azimuth Distance (km) Brightness Sun altitude
Rises 02:31:07 0° 212° (SSW) 3,959 - -50.3°
Reaches altitude 10° 02:35:13 10° 191° (S) 3,049 - -49.6°
Maximum altitude 02:39:19 15° 158° (SSE) 2,696 - -48.9°
Exits shadow 02:42:49 11° 129° (SE) 3,004 7.8 -48.3°
Drops below altitude 10° 02:43:29 10° 125° (SE) 3,117 7.9 -48.2°
Sets 02:47:45 0° 105° (ESE) 4,095 8.8 -47.4°
